GFSMW_925_temp_060.txt.gz
Temp
16 17 19 19 20 21 20 20 21 21 18 17 17 17 16 16 17 17 18 18 18 18 18 18 18 17 17 16 16 15 15 14 14 13 12 12 12 12 11 11 11 11 10
14 14 17 19 19 20 21 20 20 21 19 18 18 17 17 16 17 17 18 18 18 18 18 18 18 17 17 16 16 15 14 14 13 13 11 8 10 10 10 10 10 10 10
15 15 14 16 18 18 20 20 20 20 20 19 18 17 17 16 16 16 16 18 17 18 18 18 18 17 17 17 16 15 15 14 12 13 13 7 8 7 9 9 9 9 9
11 11 13 14 16 17 19 19 19 20 19 18 17 16 17 17 16 16 19 19 18 19 17 18 17 17 17 16 16 15 14 14 13 11 11 11 11 7 7 7 8 8 8
11 12 12 13 15 16 16 18 19 19 20 19 17 17 16 16 17 16 17 16 19 18 17 17 17 17 16 15 15 15 13 13 13 12 9 9 9 9 8 7 5 6 7
11 12 13 14 15 16 16 17 17 19 19 20 19 17 17 16 16 17 16 17 16 16 16 16 16 17 16 15 14 14 13 13 12 12 12 11 9 7 7 5 4 5 7
10 11 12 11 14 15 16 17 16 17 17 18 18 18 18 17 17 17 17 15 14 15 15 16 16 15 14 14 13 12 12 12 11 11 11 10 10 9 8 7 3 3 5
10 10 10 11 13 14 15 16 16 17 17 17 17 18 17 17 17 17 16 16 15 15 15 14 13 13 12 11 11 11 11 11 10 10 10 9 9 9 8 7 4 1 1
10 10 9 11 13 14 15 14 13 15 16 15 16 17 17 17 17 17 16 15 15 14 13 12 12 12 11 10 11 10 10 9 9 9 9 8 7 7 6 6 6 4 1
10 9 9 11 12 12 13 14 12 13 14 15 14 14 16 16 17 16 15 14 13 12 11 10 10 9 9 10 10 9 9 8 7 7 6 6 5 5 4 4 3 3 2
10 9 9 10 11 11 11 11 11 11 12 13 14 14 13 13 13 13 12 11 11 10 9 8 8 8 9 9 8 8 7 7 6 5 5 4 4 3 2 2 2 2 1
10 9 9 10 11 10 8 9 9 9 10 10 10 10 10 9 9 9 9 9 9 8 8 7 7 7 7 7 7 6 6 5 4 3 3 2 1 1 1 1 1 1 1
9 8 8 8 8 7 7 7 7 8 8 9 9 7 7 7 7 8 8 8 7 7 6 7 6 6 6 6 6 5 4 3 2 2 1 1 1 1 1 1 1 1 0
8 7 6 6 5 6 6 6 6 6 6 6 6 6 6 6 6 6 6 6 5 5 5 5 5 5 5 5 4 3 2 2 1 1 0 -0 -0 -1 -0 0 0 -0 -0
7 6 5 4 4 4 4 5 5 5 5 5 5 5 4 4 4 4 4 3 2 2 4 4 4 4 3 2 2 1 1 1 0 -1 -1 -0 -1 -1 -1 -1 -1 -1 -1
7 7 5 5 4 3 3 3 4 4 5 4 3 3 3 2 2 2 1 2 2 2 2 2 2 2 1 1 1 1 0 -1 -0 -1 -1 -1 -1 -1 -1 -2 -1 -1 -1
6 6 5 4 4 3 3 2 2 3 3 2 2 2 1 1 1 1 0 -0 -0 1 1 2 2 1 -0 0 1 0 -1 -0 -0 -0 -1 -1 -2 -2 -2 -2 -2 -2 -2
6 5 5 4 3 2 2 2 1 1 1 1 1 1 1 0 0 0 0 1 1 2 2 1 1 -0 -1 -1 -0 -0 -1 -1 -1 -2 -2 -2 -2 -3 -3 -3 -2 -2 -3
5 4 3 3 2 2 1 1 1 0 0 -0 -0 -0 -0 -1 -0 -1 -0 0 0 0 -0 -0 -1 -1 -2 -2 -2 -1 -1 -1 -2 -2 -2 -3 -3 -3 -3 -2 -3 -3 -3
4 3 2 2 2 1 1 0 -0 -0 -1 -1 -1 -1 -1 -0 -0 -0 -0 -0 -1 -1 -1 -2 -2 -2 -2 -2 -1 -1 -1 -2 -2 -3 -3 -4 -4 -3 -2 -2 -3 -4 -4
2 2 2 1 1 1 1 -1 -1 -1 -1 -1 -1 -1 -0 0 -0 -0 -0 -1 -1 -1 -1 -2 -2 -1 -1 -1 -1 -2 -2 -3 -3 -4 -4 -4 -4 -3 -3 -3 -4 -5 -4
2 1 1 1 0 0 -0 -1 -2 -1 -1 -0 -0 -0 -0 -0 -0 -0 -1 -0 -1 -1 -2 -2 -2 -2 -2 -2 -3 -3 -3 -3 -3 -4 -4 -4 -4 -5 -5 -5 -5 -4 -5
1 1 1 1 0 -0 -1 -1 -1 -0 0 -0 -0 -0 -0 -0 -0 -0 -1 -1 -1 -1 -2 -2 -3 -3 -3 -3 -3 -4 -4 -4 -4 -4 -5 -5 -6 -6 -6 -6 -6 -6 -6
1 1 0 0 -0 -1 -0 -0 -0 -0 0 -0 -1 -0 -0 -0 -0 -0 -0 -1 -1 -1 -2 -2 -3 -3 -4 -4 -4 -4 -4 -4 -5 -5 -6 -6 -6 -6 -6 -6 -6 -6 -7
2 1 1 0 -0 -0 -0 -0 -0 0 0 0 -0 -0 -0 -0 -1 -1 -1 -1 -2 -2 -3 -3 -3 -4 -4 -4 -4 -4 -4 -5 -5 -6 -6 -7 -7 -7 -7 -6 -7 -7 -7
1 1 1 0 -0 0 -0 0 1 1 1 -0 -0 -0 -1 -1 -1 -2 -2 -2 -3 -3 -3 -4 -4 -4 -4 -4 -4 -5 -5 -6 -6 -7 -8 -8 -8 -8 -8 -8 -8 -7 -7

GFSMW_925_temp_063.txt.gz
Temp
17 17 18 19 19 19 19 20 20 20 18 17 16 16 16 16 16 17 17 18 18 18 17 17 17 17 16 16 16 15 14 14 14 13 12 11 12 12 12 11 11 11 11
15 15 15 17 18 19 20 20 19 20 18 17 16 17 17 16 17 16 16 16 17 17 17 17 18 17 16 16 15 15 13 13 13 12 11 13 11 10 10 11 10 10 10
13 13 14 14 16 16 18 19 20 20 19 17 16 16 16 16 16 16 16 17 17 18 18 17 17 18 17 16 16 15 15 13 12 13 14 11 14 10 8 9 10 10 9
12 13 13 13 14 15 16 16 18 18 19 18 16 16 16 17 16 16 16 16 16 17 17 17 16 17 16 16 16 16 15 14 13 11 12 12 12 12 10 7 8 8 8
12 13 13 12 13 15 15 16 16 17 17 17 16 16 16 17 17 16 16 16 16 16 16 16 17 17 17 16 16 15 14 14 13 13 10 9 10 10 10 9 6 7 7
12 12 12 12 13 15 15 15 15 16 17 17 17 16 16 16 15 16 15 15 16 15 15 15 15 15 16 16 16 15 14 13 13 13 13 12 10 8 8 7 5 7 6
12 12 12 12 12 13 14 15 15 15 16 16 16 16 15 15 16 16 15 15 15 14 15 14 14 14 14 14 14 13 13 12 12 12 12 12 12 11 10 7 5 5 4
11 11 11 11 12 13 13 14 14 15 15 15 15 15 15 15 15 15 16 15 15 15 14 13 13 14 13 13 12 12 11 11 11 10 11 11 10 10 10 8 5 4 3
11 11 11 11 11 12 12 12 13 13 13 14 15 15 15 16 16 15 15 14 14 14 14 13 12 12 11 10 10 10 10 10 10 9 8 7 6 7 7 6 6 5 4
11 10 10 10 10 11 10 11 11 11 11 12 13 14 14 14 15 15 15 14 14 13 12 12 11 10 10 9 9 9 8 9 8 8 7 6 5 5 5 4 4 4 2
10 10 10 9 9 9 9 9 9 10 10 10 10 11 12 12 12 12 12 11 11 11 11 10 10 9 8 8 8 8 8 7 7 6 6 4 3 3 3 2 1 1 0
9 9 8 8 7 6 7 7 8 8 8 9 9 8 8 8 8 8 9 9 9 9 9 9 8 7 7 6 7 6 6 6 4 3 3 2 2 2 2 1 -0 -1 -0
8 8 7 7 6 5 5 5 6 6 6 7 7 7 7 8 8 8 8 8 8 7 6 6 6 5 5 5 5 5 4 4 3 3 3 2 1 0 -0 -1 -2 -1 -1
7 7 7 5 4 4 4 4 4 5 5 5 5 5 5 5 6 5 5 5 5 5 5 4 4 3 4 4 4 4 3 3 2 2 1 1 0 -0 -1 -2 -2 -2 -2
7 7 6 5 4 3 2 3 4 4 4 4 3 3 3 4 4 3 3 3 3 2 2 2 3 3 3 3 3 3 2 2 1 0 -0 -0 -0 -2 -2 -2 -2 -2 -2
7 7 5 5 4 3 2 2 2 3 3 2 2 2 2 2 2 2 2 2 1 1 1 0 0 1 1 2 2 2 1 0 -1 -1 -1 -1 -1 -1 -1 -3 -2 -1 -1
6 6 5 4 3 2 2 2 1 2 2 1 1 1 1 1 1 0 0 -0 -0 -0 1 1 1 0 0 0 1 0 -0 -1 -0 -1 -1 -2 -3 -2 -2 -2 -2 -2 -2
5 5 4 3 2 2 1 1 1 1 1 0 0 -0 -0 -1 -1 -0 -1 -1 -1 -0 -0 -0 -0 -0 -1 -2 -2 -1 -0 -1 -2 -2 -3 -3 -3 -3 -3 -2 -2 -2 -3
4 4 3 2 2 2 1 1 0 0 0 -0 -0 -0 -1 -1 -1 -1 -1 -0 -0 -0 -0 -1 -1 -2 -2 -2 -1 -1 -1 -2 -3 -3 -3 -3 -3 -3 -2 -2 -3 -3 -4
4 3 2 2 1 1 1 0 -0 -0 -1 -1 -1 -1 -0 -0 -0 -0 -0 -0 -1 -2 -2 -2 -2 -2 -2 -2 -2 -2 -2 -2 -3 -3 -3 -4 -4 -3 -2 -3 -4 -4 -4
2 2 2 1 1 0 -0 -1 -1 -1 -1 -1 -0 -0 -0 -0 -0 -1 -1 -1 -1 -2 -3 -3 -3 -2 -1 -1 -2 -3 -3 -3 -4 -4 -4 -4 -4 -4 -4 -4 -5 -5 -3
2 1 1 0 -0 -0 -1 -1 -1 -1 -0 0 -0 -0 -0 -0 -0 -0 -1 -1 -1 -2 -2 -2 -2 -2 -2 -2 -2 -3 -3 -3 -4 -4 -5 -5 -5 -5 -5 -5 -5 -4 -5
2 1 1 0 -0 -1 -1 -1 -1 -0 -0 -0 -1 -1 -0 -0 -0 -0 -1 -1 -1 -1 -2 -2 -3 -3 -3 -3 -4 -4 -4 -4 -5 -5 -5 -6 -6 -6 -5 -6 -6 -6 -6
2 1 1 -0 -0 -1 -0 -0 -0 -0 -0 -0 -1 -0 -0 -0 -0 -0 -1 -1 -1 -2 -2 -3 -3 -3 -4 -4 -4 -4 -4 -5 -5 -5 -5 -6 -6 -6 -6 -5 -6 -6 -7
1 1 1 0 -1 -0 -0 -0 0 0 1 0 -0 -0 -0 -1 -1 -1 -1 -1 -2 -2 -2 -3 -4 -4 -4 -4 -4 -4 -4 -5 -5 -6 -6 -6 -7 -7 -7 -7 -7 -7 -7
1 1 1 -0 -0 0 0 0 0 1 1 -0 -0 -1 -1 -1 -1 -2 -2 -2 -3 -3 -4 -4 -4 -4 -4 -4 -4 -5 -5 -6 -6 -7 -8 -8 -8 -8 -8 -8 -8 -8 -8

GFSMW_925_temp_066.txt.gz
Temp
23 21 21 20 20 20 20 21 21 21 21 19 17 16 16 17 16 17 18 18 18 18 17 17 18 18 17 16 16 16 15 14 15 15 14 13 12 12 13 13 12 12 11
21 21 20 20 20 20 20 20 20 21 21 21 18 18 18 17 17 16 17 17 17 17 17 17 17 17 17 17 16 15 14 15 14 15 16 16 14 13 12 12 12 12 11
18 19 18 18 17 18 19 19 19 19 20 20 21 19 18 17 17 16 16 16 16 16 16 16 16 16 16 16 16 15 14 14 13 15 17 16 17 15 12 11 11 11 10
18 18 18 17 16 16 15 16 17 17 18 18 19 20 19 18 17 18 17 17 16 16 16 16 16 15 15 16 15 14 14 15 13 12 12 13 15 17 15 11 11 10 10
17 17 17 16 15 14 14 14 15 16 16 17 18 19 19 19 19 18 18 18 16 16 15 15 15 15 14 15 15 14 13 14 14 13 11 12 12 12 13 16 10 8 8
17 17 16 16 16 15 15 15 15 15 15 15 16 17 18 18 18 18 18 18 16 15 15 15 14 14 14 14 14 13 13 13 13 12 12 12 12 11 12 12 12 11 7
17 17 17 16 15 15 14 15 15 15 15 15 15 16 17 17 18 18 17 17 16 15 15 14 14 14 14 13 13 12 11 12 12 12 11 12 12 12 11 11 8 9 5
16 16 16 15 15 15 14 14 14 15 14 15 15 15 15 16 16 16 17 17 17 15 14 14 13 13 13 13 12 11 11 10 10 10 10 12 11 10 9 9 7 6 5
15 15 15 14 14 14 13 12 12 13 13 13 13 14 14 14 14 15 15 15 15 15 14 14 13 13 13 12 12 11 10 9 9 8 9 9 8 8 7 6 5 7 5
15 14 14 13 13 12 12 11 11 11 11 11 11 11 12 12 12 13 13 13 13 12 12 12 12 12 12 11 10 9 9 8 7 6 6 4 5 5 5 5 5 5 4
14 14 13 12 11 11 10 10 10 10 10 9 9 8 9 9 9 10 10 9 9 9 10 10 11 10 10 9 9 8 7 6 6 5 4 3 3 4 4 4 4 3 2
13 13 12 11 11 10 9 9 8 9 8 8 9 8 9 9 9 9 8 8 8 9 9 9 8 8 7 7 6 5 5 5 3 3 4 3 3 3 3 2 1 1 -0
12 12 11 10 9 9 8 8 8 8 7 7 8 8 8 8 8 7 7 7 6 6 6 6 6 6 5 5 4 4 3 3 4 4 4 3 3 2 1 1 0 -0 -1
12 11 11 10 8 7 7 7 7 6 6 6 6 6 5 5 5 5 5 5 5 4 4 3 3 3 3 3 3 2 3 3 3 3 2 2 1 1 0 -1 -1 -2 -2
11 10 9 9 8 7 6 6 5 5 5 5 5 4 3 3 3 3 3 2 2 2 2 2 1 2 2 2 2 3 3 3 1 0 0 -0 -0 -1 -2 -2 -1 -1 -1
10 9 7 7 7 6 6 5 5 5 5 4 4 3 2 1 1 1 0 1 1 1 2 1 1 1 1 1 2 2 1 1 0 -0 -1 -2 -3 -2 -2 -2 -2 -1 -1
9 8 7 6 6 5 5 5 4 4 3 3 3 2 2 1 0 -0 -0 0 0 0 0 0 0 0 0 -0 0 0 -1 -1 -2 -2 -2 -3 -3 -2 -2 -2 -2 -2 -2
8 8 6 5 5 4 4 4 3 3 2 2 2 1 1 -0 -1 -0 -0 -0 -0 -0 -0 -0 -0 -1 -2 -1 -1 -3 -2 -3 -3 -3 -3 -3 -3 -3 -3 -2 -1 -2 -2
7 6 5 4 3 3 3 2 2 2 2 1 0 0 -0 -1 -1 -1 -1 -1 -0 -1 -1 -1 -2 -2 -3 -3 -2 -3 -2 -3 -3 -3 -3 -3 -2 -3 -2 -1 -2 -2 -2
6 5 4 3 3 2 2 2 1 0 -0 -0 -0 -0 -0 -1 -1 -1 -1 -1 -1 -1 -2 -2 -2 -2 -2 -2 -2 -2 -2 -1 -2 -2 -3 -3 -3 -3 -2 -2 -2 -3 -2
4 3 3 3 2 1 0 0 -0 -1 -1 -1 -1 -0 -0 -0 -0 -0 -0 -1 -1 -2 -2 -2 -2 -1 -1 -1 -2 -2 -2 -2 -2 -2 -3 -3 -4 -4 -4 -4 -3 -3 -3
4 3 2 2 1 1 -0 -1 -1 -1 -1 -0 -0 -0 -0 -1 -1 -1 -1 -2 -2 -1 -1 -1 -2 -2 -2 -2 -2 -2 -3 -3 -3 -3 -3 -4 -5 -5 -5 -5 -5 -4 -5
3 2 2 2 1 -0 -0 -0 -1 -0 -0 -0 -0 -1 -1 -0 0 0 -0 -0 -0 -0 -0 -1 -1 -2 -3 -3 -3 -3 -4 -4 -4 -4 -5 -5 -6 -6 -5 -5 -5 -5 -5
3 2 2 1 0 -0 -0 -0 -0 -0 0 0 0 0 0 -0 -1 -1 -0 -0 -0 0 -0 -1 -1 -2 -2 -3 -3 -3 -3 -4 -4 -5 -5 -5 -5 -5 -5 -5 -5 -5 -5
2 2 2 1 0 0 0 -0 0 1 1 1 1 0 -0 -0 -0 -1 -0 -0 -2 -1 -1 -2 -2 -2 -2 -3 -3 -4 -4 -4 -4 -5 -5 -5 -5 -5 -5 -5 -5 -5 -5
3 2 2 1 1 1 1 0 0 1 1 1 -0 -0 -1 -0 -0 -0 -1 -3 -3 -3 -3 -4 -3 -4 -4 -4 -5 -5 -5 -6 -6 -5 -5 -5 -5 -5 -5 -5 -5 -6 -6

GFSMW_925_temp_072.txt.gz
Temp
24 25 25 25 24 24 24 24 24 24 22 20 19 19 19 20 21 21 21 21 21 20 20 19 19 19 19 19 18 18 18 18 18 17 17 16 16 16 15 15 15 15 15
22 23 23 23 22 22 23 23 23 23 23 23 21 20 19 19 18 19 20 21 20 20 20 20 19 19 19 19 18 18 18 18 17 17 15 12 14 15 15 15 15 15 14
19 19 19 20 20 21 21 21 22 22 23 23 23 20 19 18 18 17 18 19 19 19 19 19 19 19 19 19 19 18 17 17 17 17 15 12 12 12 14 14 14 14 14
19 18 17 18 17 17 18 19 20 20 21 22 22 21 19 18 18 19 19 18 17 17 18 17 18 18 18 19 18 18 16 16 15 15 16 16 16 12 11 13 14 14 13
17 16 17 17 16 16 16 16 17 18 19 19 19 20 20 20 20 20 19 19 18 18 18 17 18 17 18 18 18 18 17 16 15 14 15 14 14 14 12 9 11 13 13
16 16 18 17 16 16 16 16 17 17 17 17 18 18 19 19 20 20 20 20 20 19 18 17 16 16 16 16 17 17 17 16 15 15 14 14 14 12 11 10 9 10 11
16 16 16 16 16 16 16 16 16 16 16 17 17 17 17 18 18 19 19 19 19 19 18 17 17 16 16 15 15 16 15 15 15 15 14 13 14 13 13 12 9 8 7
15 15 15 16 16 15 14 14 15 14 14 14 15 16 16 17 17 17 18 18 18 18 18 17 17 16 15 15 15 15 15 14 14 14 13 13 12 12 11 11 9 5 2
15 15 15 15 15 14 14 13 13 13 12 13 13 14 14 14 14 15 15 16 16 15 15 15 15 15 13 13 13 13 13 14 14 13 12 11 10 10 9 9 9 8 5
15 14 14 14 14 13 13 12 12 12 12 12 11 11 12 12 12 13 13 13 13 13 13 13 12 12 12 12 12 12 12 12 12 11 11 10 8 7 6 6 6 6 5
14 13 13 13 13 12 12 11 11 11 10 11 11 11 11 11 11 10 10 10 10 10 10 10 10 9 9 9 10 10 10 10 10 9 8 7 5 5 4 4 4 4 4
13 13 12 13 12 11 11 10 10 9 9 10 10 9 9 9 9 8 8 8 8 8 8 8 8 8 8 7 7 7 7 7 6 5 5 4 3 3 2 2 3 3 3
13 12 12 11 11 10 10 9 9 9 8 8 8 7 7 7 6 6 6 6 6 6 6 6 6 6 5 6 5 5 4 3 3 2 3 2 2 2 1 1 1 1 1
13 12 11 10 10 9 9 8 8 8 8 7 6 5 5 4 4 4 4 4 4 4 4 4 4 3 3 3 3 3 2 1 1 1 1 1 1 1 1 0 -0 -0 0
12 12 11 9 10 9 8 7 7 7 7 6 5 4 3 3 2 2 2 2 2 2 2 2 2 2 2 2 1 1 1 1 1 0 0 0 0 -0 -1 -1 -1 -1 -0
12 10 10 10 9 8 8 7 6 6 6 5 4 3 3 2 1 1 1 1 1 1 0 1 1 1 1 0 1 1 1 0 -1 -2 -1 -1 -1 -1 -2 -1 -1 -1 -1
11 10 8 8 8 8 7 7 6 5 5 4 3 2 2 1 0 0 -0 -1 -1 -1 -0 -0 -0 -0 0 -0 0 1 0 -0 -1 -2 -2 -3 -3 -1 -1 -3 -2 -2 -2
11 10 9 7 7 7 6 6 5 4 4 3 3 1 0 -0 -1 -1 -1 -1 -1 -1 -1 -1 -1 -1 -1 -0 0 0 -0 -1 -2 -2 -3 -3 -3 -2 -2 -2 -1 -2 -2
9 9 8 7 6 6 5 5 4 3 2 1 1 0 -0 -1 -1 -1 -1 -2 -2 -1 -2 -2 -2 -2 -2 -2 -1 -0 -1 -2 -2 -2 -2 -2 -2 -2 -2 -2 -2 -2 -2
8 7 6 5 5 4 4 4 3 2 1 0 -0 -0 -1 -1 -1 -1 -1 -1 -2 -2 -2 -1 -1 -1 -2 -1 -1 -1 -1 -1 -1 -2 -2 -3 -3 -3 -3 -3 -3 -3 -3
6 6 5 5 4 3 3 2 1 0 0 -0 -0 -1 -1 -1 -1 -1 -1 -1 -1 -1 -0 -0 -1 -1 -1 -1 -2 -2 -2 -2 -2 -2 -3 -3 -4 -4 -4 -4 -4 -4 -3
5 4 4 3 3 2 2 0 -0 -0 -0 -1 -1 -1 -1 -1 -0 -0 -0 -0 0 0 -0 -0 -1 -1 -1 -2 -2 -3 -3 -3 -3 -3 -3 -3 -4 -4 -4 -4 -4 -4 -4
5 4 3 2 2 1 0 -0 -0 -0 -0 -0 -0 -0 -0 0 1 1 1 1 1 1 0 0 -1 -1 -2 -2 -2 -2 -3 -3 -3 -4 -4 -4 -4 -4 -4 -4 -4 -4 -4
4 3 3 2 1 0 0 0 -0 0 0 0 0 1 2 2 2 2 2 2 1 1 0 -0 -1 -1 -2 -2 -3 -3 -3 -3 -4 -4 -4 -4 -4 -4 -4 -4 -4 -4 -4
5 4 3 2 1 0 0 0 0 1 1 2 2 2 2 1 1 1 1 1 0 0 0 -1 -1 -1 -2 -3 -3 -4 -4 -4 -5 -5 -4 -4 -4 -4 -4 -4 -4 -4 -5
4 4 3 2 1 0 0 1 1 2 3 2 2 1 1 1 1 0 -1 -1 -1 -1 -1 -2 -2 -3 -3 -4 -4 -5 -5 -5 -5 -5 -5 -4 -5 -5 -5 -5 -5 -5 -6